Left ArrowRight Arrow

Hourly Observations for May 5, 2023

Temp ( °F °C ) Dew Point ( °F °C ) Humidity (%) Winds ( mph kmh ) Pressure ( in mb ) Visibility ( mi km ) Precip ( " mm )
12:21 am 00:21 Mostly Cloudy 59 15 53 11.7 81 81 S 14 22 29.83 1010 10 16 0.00 0.00
12:35 am 00:35 Cloudy 59 15 53 11.7 81 81 S 14 22 29.83 1010 10 16 0.00 0.00
12:52 am 00:52 Cloudy 59 15 53 11.7 81 81 S 13 20 29.83 1010 10 16 0.00 0.00
1:52 am 01:52 Cloudy 58 14.4 54 12.2 87 87 S 14 22 29.80 1009 10 16 0.00 0.00
2:52 am 02:52 Cloudy 58 14.4 54 12.2 87 87 S 10 17 29.80 1009 10 16 0.00 0.00
3:52 am 03:52 Cloudy 58 14.4 54 12.2 87 87 SSW 7 11 29.80 1009 10 16 0.00 0.00
4:52 am 04:52 Cloudy 58 14.4 54 12.2 87 87 SSE 10 17 29.79 1009 10 16 0.00 0.00
5:52 am 05:52 Cloudy 57 13.9 54 12.2 89 89 SSE 10 17 29.80 1009 10 16 0.00 0.00
6:52 am 06:52 Cloudy 58 14.4 55 12.8 90 90 SSE 8 13 29.82 1010 10 16 0.00 0.00
7:52 am 07:52 Cloudy with Mist and Fog 58 14.4 55 12.8 90 90 SSE 13 20 29.83 1010 6 10 0.00 0.00
8:52 am 08:52 Cloudy with Mist and Fog 59 15 55 12.8 87 87 SSE 16 26 29.83 1010 6 10 0.00 0.00
10:01 am 10:01 Cloudy 60 15.6 55 12.8 83 83 SSE 13 20 29.82 1010 10 16 0.00 0.00
10:52 am 10:52 Cloudy with Light Rain 60 15.6 56 13.3 86 86 S 10 17 29.85 1011 6 10 0.01 0.13
11:52 am 11:52 Cloudy with Light Rain 59 15 58 14.4 96 96 SSE 10 17 29.84 1011 2 3 0.01 0.13
12:07 pm 12:07 Cloudy with Rain 59 15 58 14.4 96 96 SSE 9 15 29.83 1010 3 4 0.01 0.13
12:18 pm 12:18 Cloudy with Light Rain 59 15 58 14.4 96 96 SE 9 15 29.83 1010 3 4 0.01 0.25
12:40 pm 12:40 Cloudy with Light Rain 59 15 58 14.4 96 96 SE 9 15 29.82 1010 3 5 0.02 0.51
12:52 pm 12:52 Cloudy with Light Rain 59 15 58 14.4 96 96 SE 8 13 29.82 1010 3 5 0.02 0.51
1:52 pm 13:52 Cloudy 60 15.6 58 14.4 93 93 SSE 5 7 29.83 1010 7 11 0.01 0.13
2:32 pm 14:32 Cloudy 61 16.1 58 14.4 90 90 SE 5 7 29.83 1010 7 11 0.01 0.13
2:52 pm 14:52 Cloudy 61 16.1 58 14.4 90 90 Calm 29.83 1010 7 11 0.01 0.13
3:21 pm 15:21 Cloudy with Mist and Fog 61 16.1 59 15 93 93 Calm 29.83 1010 2 3 0.00 0.00
3:43 pm 15:43 Cloudy with Light Rain 61 16.1 59 15 93 93 NE 3 6 29.82 1010 1 2 0.01 0.13
3:52 pm 15:52 Cloudy with Light Rain 61 16.1 59 15 93 93 NNE 5 7 29.82 1010 1 2 0.01 0.25
4:52 pm 16:52 Cloudy with Mist and Fog 61 16.1 60 15.6 97 97 NE 5 7 29.81 1010 1 2 0.01 0.13
5:42 pm 17:42 Cloudy with Mist and Fog 61 16.1 60 15.6 97 97 ESE 7 11 29.81 1009 1 2 0.00 0.00
5:52 pm 17:52 Cloudy with Mist and Fog 62 16.7 60 15.6 93 93 E 7 11 29.81 1009 2 3 0.00 0.00
6:52 pm 18:52 Cloudy with Mist and Fog 62 16.7 60 15.6 93 93 ESE 7 11 29.80 1009 4 6 0.00 0.00
7:50 pm 19:50 Mostly Cloudy with Mist and Fog 63 17 61 16 94 94 E 7 11 29.78 1009 4 6 0.00 0.00
7:52 pm 19:52 Mostly Cloudy with Mist and Fog 62 16.7 59 15 90 90 E 6 9 29.80 1009 6 10 0.00 0.00
8:19 pm 20:19 Cloudy with Mist and Fog 61 16.1 60 15.6 97 97 E 6 9 29.79 1009 6 10 0.00 0.00
8:52 pm 20:52 Cloudy with Mist and Fog 61 16.1 59 15 93 93 E 9 15 29.80 1009 4 6 0.00 0.00
9:40 pm 21:40 Cloudy with Mist and Fog 62 16.7 60 15.6 93 93 E 7 11 29.80 1009 4 6 0.00 0.00
9:52 pm 21:52 Cloudy with Mist and Fog 62 16.7 59 15 90 90 E 7 11 29.80 1009 4 6 0.00 0.00
10:52 pm 22:52 Cloudy 61 16.1 59 15 93 93 ESE 5 7 29.80 1009 7 11 0.00 0.00
11:52 pm 23:52 Mostly Cloudy with Mist and Fog 60 15.6 58 14.4 93 93 E 5 7 29.79 1009 4 6 0.00 0.00

Powered by Vaisala Xweather